Terminal Aerodrome Forecast
Issued by NWS Cleveland, OH

Home | Current Version | Previous Version | Graphics & Text | Print | Product List | Glossary On
Versions: 1 2 3 4 5 6 7 8 9 10 11 12 13 14 15 16 17 18
000
FTUS41 KCLE 281000 AAA
TAFTOL
TAF AMD
KTOL 281004Z 2810/2906 30008KT P6SM BKN015 OVC035
     FM281400 34014KT P6SM BKN025
     FM281600 34014G22KT P6SM BKN035
     FM290100 27004KT P6SM SCT040 BKN100=

USA.gov is the U.S. government's official web portal to all federal, state and local government web resources and services.